Probability
0 0 0 0 0 0 0 0 0 0 0 0 0 0 0 0 0 0 0 0 0 0 0 0 1 2 2 3 3 3 3 1 0 0 0 0 0 0 0 0 0 0 0 0
0 0 0 0 0 0 0 0 0 0 0 0 0 0 0 0 0 0 0 0 0 0 0 0 0 1 1 2 3 3 3 2 1 0 0 0 0 0 0 0 0 0 0 0
0 0 0 0 0 0 0 0 0 0 0 0 0 0 0 0 0 0 0 0 0 0 0 0 0 1 1 2 3 3 3 2 1 0 0 0 0 0 0 0 0 0 0 0
0 0 0 0 0 0 0 0 0 0 0 0 0 0 0 0 0 0 0 0 0 0 0 0 1 2 2 3 3 2 1 1 1 0 0 0 0 0 0 0 0 0 0 0
0 0 0 0 0 0 0 0 0 0 0 0 0 0 0 0 0 0 0 0 0 0 0 0 1 2 3 3 3 2 1 1 0 0 0 0 0 0 0 0 0 0 0 0
0 0 0 0 0 0 0 0 0 0 0 0 0 0 0 0 0 0 0 0 0 0 0 0 0 1 2 3 3 3 3 2 1 0 0 0 0 0 0 0 0 0 0 0
0 0 0 0 0 0 0 0 0 0 0 0 0 0 0 0 0 0 0 0 0 0 0 0 0 0 1 3 3 3 3 3 1 0 0 0 0 0 0 0 0 0 0 0
0 0 0 0 0 0 0 0 0 0 0 0 0 0 0 0 0 0 0 0 0 0 0 0 0 0 1 2 3 3 3 3 2 1 0 0 0 0 0 0 0 0 0 0
0 0 0 0 0 0 0 0 0 0 0 0 0 0 0 0 0 0 0 0 0 0 0 0 0 0 0 1 2 3 3 2 2 2 1 0 0 0 0 0 0 0 0 0
0 0 0 0 0 0 0 0 0 0 0 0 0 0 0 0 0 0 0 0 0 0 0 0 0 0 0 1 2 2 1 1 1 2 1 0 0 0 0 0 0 0 0 0
0 0 0 0 0 0 0 0 0 0 0 0 0 0 0 0 0 0 0 0 0 0 0 0 0 0 0 1 2 2 1 0 0 1 1 0 0 0 0 0 0 0 0 0
0 0 0 0 0 0 0 0 0 0 0 0 0 0 0 0 0 0 0 0 0 0 0 0 0 0 0 1 1 1 0 0 0 0 0 0 0 0 0 0 0 0 0 0
0 0 0 0 0 0 0 0 0 0 0 0 0 0 0 0 0 0 0 0 0 0 0 0 0 0 0 0 0 0 0 0 0 0 0 0 0 0 0 0 0 0 0 0
0 0 0 0 0 0 0 0 0 0 0 0 0 0 0 0 0 0 0 0 0 0 0 0 0 0 0 0 0 0 0 0 0 0 0 0 0 0 0 0 0 0 0 0
0 0 0 0 0 0 0 0 0 0 0 0 0 0 0 0 0 0 0 0 0 0 0 0 0 0 0 0 0 0 0 0 0 0 0 0 0 0 0 0 0 0 0 0
0 0 0 0 0 0 0 0 0 0 0 0 0 0 0 0 0 0 0 0 0 0 0 0 0 0 0 0 0 0 0 0 0 0 0 0 0 0 0 0 0 0 0 0
0 0 0 0 0 0 0 0 0 0 0 0 0 0 0 0 0 0 0 0 0 0 0 0 0 0 0 0 0 0 0 0 0 0 0 0 0 0 0 0 0 0 0 0
0 0 0 0 0 0 0 0 0 0 0 0 0 0 0 0 0 0 0 0 0 0 0 0 0 0 0 0 0 0 0 0 0 0 0 0 0 0 0 0 0 0 0 0
0 0 0 0 0 0 0 0 0 0 0 0 0 0 0 0 0 0 0 0 0 0 0 0 0 0 0 0 0 0 0 0 0 0 0 0 0 0 0 0 0 0 0 0
0 0 0 0 0 0 0 0 0 0 0 0 0 0 0 0 0 0 0 0 0 0 0 0 0 0 0 0 0 0 0 0 0 0 0 0 0 0 0 0 0 0 0 0
0 0 0 0 0 0 0 0 0 0 0 0 0 0 0 0 0 0 0 0 0 0 0 0 0 0 0 0 0 0 0 0 0 0 0 0 0 0 0 0 0 0 0 0
0 0 0 0 0 0 0 0 0 0 0 0 0 0 0 0 0 0 0 0 0 0 0 0 0 0 0 0 0 0 0 0 0 0 0 0 0 0 0 0 0 0 0 0
0 0 0 0 0 0 0 0 0 0 0 0 0 0 0 0 0 0 0 0 0 0 0 0 0 0 0 0 0 0 0 0 0 0 0 0 0 0 0 0 0 0 0 0
0 0 0 0 0 0 0 0 0 0 0 0 0 0 0 0 0 0 0 0 0 0 0 0 0 0 0 0 0 0 0 0 0 0 0 0 0 0 0 0 0 0 0 0
0 0 0 0 0 0 0 0 0 0 0 0 0 0 0 0 0 0 0 0 0 0 0 0 0 0 0 0 0 0 0 0 0 0 0 0 0 0 0 0 0 0 0 0
0 0 0 0 0 0 0 0 0 0 0 0 0 0 0 0 0 0 0 0 0 0 0 0 0 0 0 0 0 0 0 0 0 0 0 0 0 0 0 0 0 0 0 0
Wind_Speed
5 8 5 2 1 3 3 4 2 1 2 2 1 3 4 2 1 1 1 1 1 1 1 1 1 1 2 2 2 2 2 2 1 1 0 1 1 1 1 2 3 3 3 2
7 6 3 1 3 5 4 4 1 2 3 2 1 4 4 2 2 2 2 2 2 1 2 1 2 2 2 2 2 2 2 2 1 1 0 0 1 1 1 1 2 3 3 3
7 2 2 4 5 5 3 2 2 1 3 2 1 4 4 2 1 1 1 2 2 2 2 2 1 1 1 2 2 1 2 2 2 1 1 1 1 1 1 2 2 3 3 3
5 4 3 5 4 3 1 0 1 1 2 1 0 3 5 2 2 2 2 2 3 2 1 1 1 0 1 1 0 1 1 1 2 1 2 2 1 0 0 1 1 2 3 3
3 4 5 4 3 1 1 1 1 1 1 1 1 1 7 2 4 4 4 4 3 2 2 2 2 1 1 1 0 0 1 1 2 2 2 1 1 0 1 1 2 2 2 2
2 2 2 1 2 1 0 3 3 3 3 1 2 2 7 4 5 4 3 3 3 2 1 1 1 0 0 0 0 0 1 1 1 1 2 1 1 1 1 1 1 1 2 2
5 4 4 3 3 5 4 5 4 5 4 4 2 2 8 6 4 4 4 3 3 3 2 1 1 1 0 0 0 0 0 0 1 1 1 1 0 1 0 0 0 1 1 1
3 4 4 3 1 1 2 3 4 3 3 5 3 5 7 4 3 2 2 2 2 3 2 2 2 2 1 1 1 0 0 0 1 0 0 0 0 0 0 0 0 0 1 1
3 2 3 2 1 1 2 2 1 4 1 3 5 6 7 2 2 2 1 1 2 3 3 3 2 2 2 2 1 1 1 0 0 0 0 0 0 0 1 0 0 0 1 1
2 1 3 3 2 3 2 3 3 3 2 3 6 5 5 4 4 3 3 3 3 3 3 3 2 2 3 2 2 1 1 1 1 0 1 0 1 1 1 0 0 1 1 1
2 3 3 3 0 1 1 1 3 3 3 3 4 7 5 5 4 5 5 4 4 4 4 3 3 3 2 2 1 1 1 1 1 1 1 1 1 1 1 1 1 0 1 1
1 4 1 4 2 1 1 2 4 3 3 3 3 9 4 3 4 4 4 3 3 4 4 3 3 2 2 2 2 2 2 2 2 1 1 1 1 0 1 1 1 1 1 1
2 4 2 5 3 1 1 2 2 2 2 3 4 10 3 2 3 3 4 4 4 3 3 3 3 3 3 3 3 3 2 2 2 1 1 1 1 1 1 1 1 1 1 1
3 3 5 6 5 2 3 4 4 4 4 5 9 10 8 6 5 5 4 4 4 4 4 4 4 4 4 4 3 3 3 2 2 1 2 2 2 2 1 1 0 0 1 1
3 2 3 4 4 3 6 8 7 9 8 9 10 9 12 8 6 6 5 4 4 5 5 5 5 5 4 4 3 3 3 3 2 2 2 2 2 1 0 0 0 0 1 1
2 3 0 4 2 3 8 11 10 10 8 10 9 14 12 8 5 5 5 5 5 6 6 6 5 5 5 5 4 4 4 3 3 3 3 2 1 1 1 1 1 1 1 1
3 4 2 4 4 5 9 11 11 8 9 9 12 12 5 4 6 6 6 6 7 7 6 6 6 5 5 5 5 5 4 3 2 3 2 2 1 1 2 1 1 1 2 1
6 5 3 1 4 7 9 2 7 8 8 11 10 8 6 7 6 5 6 7 8 7 6 6 5 5 5 4 3 3 2 3 3 3 3 2 2 2 2 2 2 2 2 2
3 6 4 2 2 11 11 5 6 7 8 10 13 11 8 5 4 6 6 6 7 7 6 5 5 5 4 4 3 3 2 3 3 4 4 3 3 3 3 3 3 3 2 2
3 4 5 4 3 9 8 2 4 3 8 7 9 10 6 2 2 7 4 3 4 4 4 4 3 2 3 3 3 3 3 3 5 5 4 3 3 4 4 4 3 2 2 3
4 3 5 5 6 14 9 3 5 4 8 3 6 7 7 8 8 5 2 3 3 3 3 3 3 3 4 3 3 4 4 5 5 3 2 3 3 3 4 3 2 2 2 2
11 9 9 7 7 15 7 9 11 11 3 3 4 5 6 7 6 5 4 4 4 3 3 2 3 4 3 3 4 4 6 5 2 2 2 3 3 3 2 2 3 2 2 3
11 12 10 14 14 6 8 10 8 4 4 5 5 5 6 6 7 6 6 5 5 4 4 3 4 4 3 3 4 5 5 3 2 2 3 3 3 3 2 3 3 2 2 3
7 5 6 9 13 10 10 10 8 7 8 7 6 6 5 7 8 7 6 5 5 4 4 3 3 4 4 3 4 5 3 2 3 3 3 3 3 3 2 2 3 3 3 4
10 10 7 10 10 7 10 13 14 11 9 8 8 7 8 8 8 8 7 6 5 5 4 3 4 5 5 4 4 4 2 3 3 4 3 3 3 3 3 3 4 5 5 5
11 13 13 14 12 10 10 8 9 10 11 11 9 8 7 8 9 7 7 6 5 5 4 4 5 5 5 4 5 4 3 4 4 3 3 3 3 3 3 3 3 6 6 8
Wind_Direction
29 56 42 354 48 123 112 107 91 312 329 37 40 287 283 281 294 284 274 250 232 263 298 11 16 36 46 37 39 43 51 41 48 69 105 93 57 35 38 44 39 37 32 34
52 38 337 5 70 86 96 98 51 331 352 32 313 285 282 262 242 238 247 251 241 270 330 359 17 24 27 31 31 37 28 30 40 48 15 146 126 72 62 44 34 29 29 26
83 331 339 70 61 71 53 134 174 244 347 24 353 305 283 286 286 255 236 238 235 225 250 281 343 360 4 23 24 32 27 31 36 56 91 63 73 52 28 17 26 23 28 30
55 349 38 58 37 53 15 233 154 127 64 328 47 291 286 271 289 271 255 250 253 257 254 264 257 292 271 265 332 11 31 45 39 68 101 123 122 185 260 4 17 20 26 29
37 6 37 41 346 25 220 296 78 105 102 3 342 253 288 304 270 264 247 239 244 239 231 237 238 223 229 228 215 310 31 49 44 63 86 111 94 354 2 50 37 14 8 23
37 356 35 341 317 344 238 43 43 43 65 338 257 213 279 256 249 266 247 235 233 222 214 257 284 241 272 5 49 26 71 44 36 61 71 88 94 71 44 20 24 9 4 13
6 4 356 357 14 10 39 68 36 13 8 265 286 232 255 260 246 238 234 235 235 228 212 245 295 290 276 18 16 24 96 34 16 52 62 73 109 122 140 276 324 344 356 354
57 341 340 356 42 8 21 96 135 175 244 287 309 247 259 272 277 257 220 217 229 231 225 224 245 254 246 227 213 160 125 322 350 36 324 17 179 204 228 247 252 258 286 304
124 278 312 325 330 89 80 78 130 126 55 291 279 281 294 278 302 294 259 231 241 232 227 230 247 243 232 222 212 195 184 223 288 259 272 318 282 261 270 295 318 320 314 339
130 170 305 315 17 21 107 142 94 101 118 289 293 275 264 281 285 280 260 255 252 240 239 240 239 235 228 221 216 201 185 191 227 250 240 283 283 272 269 291 309 329 328 343
105 124 320 359 81 222 77 107 114 116 159 176 280 273 233 234 250 252 249 246 244 237 234 234 235 235 228 229 220 217 224 218 237 257 282 286 293 304 296 265 267 287 329 346
114 115 282 272 270 274 210 193 159 161 235 213 242 269 270 242 255 243 248 255 255 242 234 229 232 231 231 234 233 226 225 224 234 232 240 251 266 283 272 279 307 329 344 349
129 113 45 344 329 337 269 226 182 144 146 194 219 263 292 307 297 270 251 258 264 256 246 235 234 229 228 234 235 231 230 228 232 223 229 248 259 248 248 262 310 353 345 343
113 132 173 206 232 205 245 237 191 157 186 225 233 257 283 282 281 277 266 260 257 249 241 231 232 235 232 231 230 230 237 227 220 217 224 241 250 245 254 267 11 5 336 326
114 170 233 261 276 257 246 242 217 211 211 218 243 250 265 267 264 264 260 259 259 259 249 238 235 235 234 234 233 230 232 227 213 210 223 238 245 251 282 317 317 340 333 308
111 146 49 297 290 273 266 250 229 228 228 240 262 272 262 265 267 266 259 249 249 255 251 243 238 235 234 232 228 224 226 223 208 211 227 232 221 225 237 256 266 286 296 302
140 133 119 279 319 343 274 234 200 206 212 202 225 243 258 262 255 250 248 245 246 249 246 240 237 234 235 232 224 221 222 211 202 214 226 221 216 233 246 249 260 266 271 278
143 131 135 296 11 254 245 194 184 205 233 218 235 250 247 246 259 259 247 241 248 245 240 237 235 236 233 229 223 217 206 196 203 217 225 225 215 234 249 247 248 257 267 269
146 140 134 137 260 280 288 237 182 194 263 222 226 245 253 267 313 288 252 230 231 233 233 232 231 230 226 222 211 194 205 205 212 226 230 225 216 227 236 242 248 254 259 268
79 109 128 149 199 247 252 186 163 126 279 238 205 228 234 172 259 272 258 231 238 239 233 235 238 228 225 224 191 190 213 215 227 234 236 230 221 224 233 241 250 256 253 259
150 158 175 184 225 260 249 174 134 180 246 225 192 210 199 199 221 248 265 252 244 244 245 237 232 227 228 212 182 203 217 229 235 236 236 234 229 229 235 243 250 247 248 261
174 173 190 168 206 251 204 153 190 217 227 199 202 210 211 228 246 257 260 256 252 256 255 237 232 243 239 200 190 215 232 239 228 216 227 236 236 232 229 230 246 243 233 245
200 192 186 194 214 239 181 203 220 205 212 219 214 225 222 235 247 252 255 253 252 246 245 234 226 244 247 217 203 224 241 224 199 205 226 236 239 236 229 223 231 240 235 239
227 195 196 240 254 247 238 242 246 229 227 236 233 235 230 239 248 251 252 249 247 246 243 236 229 240 249 236 228 235 238 198 190 213 228 229 228 241 240 235 229 227 229 237
203 177 202 244 261 279 259 236 236 236 236 240 242 234 232 237 247 245 248 246 242 247 245 230 228 239 248 244 241 239 219 192 208 222 225 230 229 229 236 237 236 239 237 235
189 184 191 226 219 208 237 231 213 216 230 233 235 244 239 227 239 242 245 245 239 241 240 238 240 244 250 243 241 235 213 199 203 221 225 224 225 228 230 243 268 259 256 263